HULIANWANG DIGUI-38

Satellite information

Favourite Embed

Satellite Type and Status

PAYLOADIN ORBIT

Key statistics

Satellite HULIANWANG DIGUI-38 at a glance.

Uptime

85

Days in orbit

Revolutions

≈ 13.2

Per day

Orbit

LEO

Low Earth Orbit

Inclination

86.5

Latest

Satellite identification and parameters

Extended collection of information and parameters for HULIANWANG DIGUI-38.

Object identification

Identified? True

Debris? False

Object name: HULIANWANG DIGUI-38

International designator: 2025-159D

Object number (NORAD): 64959

Object ID (CCSDS): 64959

Country: PEOPLES REPUBLIC OF CHINA (PRC)

Current information (Y/N): Y

RCS size: LARGE

Orbital parameters

Period: 108.727 minutes

Inclination: 86.5043 deg

SMA: 7546.012 km

Apoapsis: 1168.975 km

Periapsis: 1166.78 km

RAAN: 3.5784 deg

Eccentricy: 0.00014549

Argument of periapsis: 98.4177 deg

Mean anomaly: 261.7122 deg

Mean motion: 13.24422315 rev/day

Mean motion (dot): 0.000001 rev/day2

B* drag term: 0.00019870106 1/REarth

Two-line elements (TLE)

Creation date: Oct. 20, 2025, 2:10 a.m.

Reference frame: TEME

Reference center: EARTH

Epoch: Oct. 19, 2025, 9:56 p.m. UTC

TLE line 0: 0 HULIANWANG DIGUI-38

TLE line 1: 1 64959U 25159D 25292.91406458 .00000100 00000-0 19870-3 0 9991

TLE line 2: 2 64959 86.5043 3.5784 0001455 98.4177 261.7122 13.24422315 11324

Live tracking on map

Real-time ground track for satellite HULIANWANG DIGUI-38.

In-orbit conjunctions

There are no conjunctions computed for HULIANWANG DIGUI-38, at the moment. Check back to stay up to date, as we update our databases every day.

Go to all conjunctions

Associated space launch

A batch of 5 Low Earth Orbit communication satellites for the Chinese state owned SatNet constellation operated by the China Satellite Network Group. The constellation will eventually consists of 13000 satellites.

HULIANWANG DIGUI-38 was lifted into orbit during the mission ‘Long March 6A | SatNet LEO Group 05’, on board a Long March 6A space rocket.

The launch took place on July 27, 2025, 10:03 a.m. from Launch Complex 9A.

For more information about the launch, click the button.

Launch to space Long March 6A | SatNet LEO Group 05
Long March 6A | SatNet LEO Group 05

Agency: N/A

Status: Launch Successful

Launch date: July 27, 2025, 10:03 a.m. UTC

Rocket: Long March 6A

Launch pad: Launch Complex 9A

Location: Taiyuan Satellite Launch Center, People's Republic of China

...

Latest news about this satellite

There are no fresh news available about this satellite. Check back as we update our databases every day.


Newsletter sign-up

Weekly statistics, charts and insights to help you stay on top of the space industry.